Location: Unspecified
(0.0000°N, 0.0000°E)
Time: 05:30:38
(UTC+00:00)

Transit 2A - Pass Details

Date: 08 October 2020
Orbit: 593 x 966 km, 66.7° (Epoch: 28 October)

Event Time Altitude Azimuth Distance (km) Brightness Sun altitude
Rises 04:08:20 0° 195° (SSW) 3,294 9.2 -24.6°
Reaches altitude 10° 04:10:40 10° 193° (SSW) 2,417 8.5 -24.1°
Maximum altitude 04:16:16 72° 109° (ESE) 924 6.5 -22.7°
Drops below altitude 10° 04:22:23 10° 26° (NNE) 2,626 9.0 -21.2°
Sets 04:25:00 0° 24° (NNE) 3,598 9.7 -20.5°
